#timestamp,LO_Frequency,Hit,StdDev 
1629216015.0,286047002.2,N
1629216015.9,286047002.2,N
1629216035.8,286046998.2,N
1629216055.6,286047000.7,N
1629216075.4,286046998.3,N
1629216095.3,286046998.2,N
1629216115.1,286047001.0,N
1629216135.9,286047001.5,N
1629216155.7,286047001.8,N
1629216175.5,286047003.6,N
1629216195.4,286047003.5,N
1629216215.2,286047004.1,N
1629216235.0,286047002.0,N
1629216235.9,286047002.0,N
1629216255.8,286047002.2,N
1629216275.6,286047002.6,N
1629216295.5,286047003.1,N
1629216315.3,286047005.3,N
1629216335.1,286047002.1,N
1629216355.9,286046999.7,N
1629216375.7,286046999.7,N
1629216395.6,286047000.3,N
1629216415.4,286047002.1,N
1629216435.2,286046999.8,N
1629216455.1,286047000.7,N
1629216456.0,286047000.7,N
1629216475.8,286047000.9,N
1629216495.6,286047001.1,N
1629216515.5,286047000.7,N
1629216535.3,286046999.7,N
1629216555.2,286047000.8,N
1629216575.9,286047000.2,N
1629216595.7,286047004.1,N
1629216615.6,286047004.4,N
1629216635.4,286047005.0,N
1629216655.2,286047004.5,N
1629216675.1,286047004.5,N
1629216676.0,286047004.5,N
1629216695.8,286047004.9,N
1629216715.7,286047005.0,N
1629216735.5,286047005.0,N
1629216755.3,286047008.8,Y
1629216775.2,286047005.2,P
1629216795.0,286047005.0,P
1629216795.9,286047005.0,P
1629216815.8,286047004.7,Y
1629216835.6,286047004.0,P
1629216855.4,286047004.0,P
1629216875.3,286047003.6,P
1629216895.1,286047001.7,Y
1629216915.9,286046996.9,P
1629216935.7,286046999.2,N
1629216955.5,286046997.0,N
1629216975.4,286046997.8,N
1629216995.2,286046999.3,N
1629217015.0,286047000.2,N
1629217015.9,286047000.2,N
1629217035.8,286046996.9,N
1629217055.6,286046997.1,N
1629217075.5,286046996.5,N
1629217095.3,286046997.3,N
1629217115.1,286046998.6,N
1629217135.9,286047000.7,N
1629217155.7,286047002.4,N
1629217175.5,286047002.2,N
1629217195.4,286047001.7,N
1629217215.2,286047000.5,N
1629217235.1,286046998.8,N
1629217236.0,286046998.8,N
1629217255.8,286046997.6,N
1629217275.6,286046997.9,N
1629217295.5,286046997.8,N
1629217315.3,286046997.5,N
1629217335.1,286046997.5,N
1629217355.9,286046999.6,N
1629217375.7,286046999.2,N
1629217395.6,286046996.7,N
1629217415.4,286046995.0,N
1629217435.2,286046997.6,N
1629217455.1,286046999.2,N
1629217456.0,286046999.2,N
1629217475.8,286046998.7,N
1629217495.7,286046999.3,N
1629217515.5,286046998.8,N
1629217535.3,286047000.6,N
1629217555.2,286047000.2,N
1629217575.9,286047000.1,N
1629217595.7,286047002.6,N
1629217615.6,286047002.8,N
1629217635.4,286047000.0,N
1629217655.3,286047001.2,N
1629217675.1,286046998.3,N
1629217676.0,286046998.3,N
1629217695.8,286046999.4,N
1629217715.7,286046998.7,N
1629217735.5,286046998.2,N
1629217755.3,286046996.5,N
1629217775.2,286046996.7,N
1629217795.0,286046999.1,N
1629217795.9,286046999.1,N
1629217815.8,286046996.6,N
1629217835.6,286046998.7,N
1629217855.4,286046996.6,N
1629217875.3,286046997.8,N
1629217895.1,286046997.1,N
1629217915.8,286046996.6,N
1629217935.7,286046997.7,N
1629217955.5,286046997.2,N
1629217975.4,286046997.9,N
1629217995.2,286046995.5,N
1629218015.0,286046995.9,N
1629218015.9,286046995.9,N
1629218035.8,286046996.0,N
1629218055.6,286046996.1,N
1629218075.4,286046993.9,Y
1629218095.4,286046995.7,P
1629218115.2,286046995.3,P
1629218135.0,286046997.9,N
1629218135.9,286046997.9,N
1629218155.8,286046995.7,Y
1629218175.6,286046999.0,P
1629218195.5,286047002.8,N
1629218215.3,286047002.4,N
1629218235.1,286047002.7,N
1629218255.9,286046999.7,N
1629218275.7,286047001.0,N
1629218295.5,286047000.6,N
1629218315.4,286046999.9,N
1629218335.2,286047000.4,N
1629218355.0,286046998.2,N
1629218356.0,286046998.2,N
1629218375.8,286047011.9,Y
1629218395.6,286046998.9,P
1629218415.5,286046999.2,N
1629218435.3,286046999.6,N
1629218455.1,286046998.7,N
1629218475.9,286046998.6,N
1629218495.7,286046998.1,Y
1629218515.6,286047000.0,P
1629218535.4,286047001.1,N
1629218555.2,286047000.7,N
1629218575.1,286047000.6,N
1629218576.0,286047000.6,N
1629218595.8,286046998.1,Y
1629218615.6,286046998.6,P
1629218635.5,286046997.8,N
1629218655.3,286046999.6,N
1629218675.2,286046998.6,N
1629218695.9,286046999.6,N
1629218715.7,286046997.1,Y
1629218735.6,286046996.5,P
1629218755.4,286046997.8,N
1629218775.2,286046998.9,N
1629218795.1,286046998.3,N
1629218796.0,286046998.3,N
1629218815.8,286046996.7,Y
1629218835.7,286047000.0,P
1629218855.5,286046999.7,N
1629218875.3,286047002.2,N
1629218895.2,286047000.1,N
1629218915.0,286046999.7,N
1629218915.9,286046999.7,N
1629218935.8,286047001.0,N
1629218955.6,286047001.2,N
1629218975.4,286047002.8,N
1629218995.3,286047004.3,Y
1629219015.1,286047004.1,P
1629219035.8,286047004.7,N
1629219055.7,286047004.5,N
1629219075.5,286047005.8,Y
1629219095.4,286047002.7,P
1629219115.2,286046999.8,N
1629219135.0,286047000.4,N
1629219135.9,286047000.4,N
1629219155.8,286046999.5,N
1629219175.6,286046996.8,N
1629219195.4,286046997.2,N
1629219215.3,286046997.9,N
1629219235.1,286046995.4,N
1629219255.9,286046996.8,N
1629219275.7,286046998.9,N
1629219295.5,286046998.7,N
1629219315.4,286046996.8,N
1629219335.2,286046997.4,N
1629219355.0,286046998.8,N
1629219355.9,286046998.8,N
1629219375.8,286046996.9,N
1629219395.6,286046999.6,N
1629219415.5,286046996.6,N
1629219435.3,286046996.7,N
1629219455.1,286046997.1,N
1629219475.9,286046997.1,N
1629219495.7,286046997.2,N
1629219515.5,286046998.9,N
1629219535.4,286046997.6,N
1629219555.2,286046997.5,N
1629219575.1,286046997.4,N
1629219576.0,286046997.4,N
1629219595.8,286046996.5,N
